Preview of NWS' New Version of Forecast
This preview is not operational and should not be used for support decisions.

Regional Weather Roundup (RWR)

Issued by National Weather Service (NWS)

                            
000
ASUS42 KTBW 260916
RWRFL 
FLORIDA REGIONAL WEATHER ROUNDUP
NATIONAL WEATHER SERVICE TAMPA BAY RUSKIN FL
500 AM EDT TUE MAR 26 2019

NOTE: "FAIR" INDICATES FEW OR NO CLOUDS BELOW 12,000 FEET WITH NO
SIGNIFICANT WEATHER AND/OR OBSTRUCTIONS TO VISIBILITY.

FLZ001>010-012>015-112-114-115-261000-
PANHANDLE FLORIDA
  
CITY           SKY/WX    TMP DP  RH WIND       PRES   REMARKS
PENSACOLA      FAIR      59  53  80 N12       30.06S                  
PENSACOLA NAS  FAIR      60  53  77 N7        30.06S                  
MILTON NAS     FAIR      57  52  83 VRB6      30.06S                  
CRESTVIEW      FAIR      56  53  90 N6        30.06S                  
DUKE FIELD     FAIR      57  54  91 NW7       30.04S                  
VALPARAISO     FAIR      59  54  83 NW7       30.03S                  
MARY ESTHER    CLEAR     59  54  82 NW10      30.03S                  
PANAMA CITY    FAIR      58  55  90 NW8       30.01S                  
TYNDALL AFB    FAIR      61  58  89 NW8       30.01S                  
APALACHICOLA   CLOUDY    65  61  87 NW3       30.01S                  

STATION/POSITION SKY/WX   TEMP    WIND        PRES    WAVE   SWELL
                          AIR SEA DIR/SP/G            HT/PER HT/PER
                          (F)     (DEG/KT/KT) (MB)    (FT/S) (FT/S)
30.1N   87.6W              64     350/ 16/ 19 1018.3S   2/ 4
29.2N   88.2W                     360/ 16/ 19 1018.6R   3/ 4   2/ 6
PANAMA CITY BEAC           62 67  330/  9/ 12 1016.8F
TOWER C                    67     280/ 11/ 12 1016.4F

$$
FLZ011-016>038-118-127-128-134-139-239-261000-
NORTH FLORIDA
  
CITY           SKY/WX    TMP DP  RH WIND       PRES   REMARKS
MARIANNA       FAIR      59  59 100 NW6       30.00F                  
TALLAHASSEE    FOG       58  58 100 CALM      30.00S VSB 1/2          
PERRY          FAIR      61  60  97 SW5       30.00S                  
LIVE OAK       CLOUDY    59  59 100 CALM      29.97F FOG              
CROSS CITY     MOCLDY    61  60  97 SW3       30.00F                  
LAKE CITY      CLOUDY    57  57 100 W6        30.00S FOG              
GAINESVILLE    FAIR      62  58  86 W7        30.02F                  
WILLISTON        N/A    N/A N/A N/A MISG        N/A                   
PALATKA        FAIR      55  55 100 CALM      30.00F                  
MAYPORT NAS    FAIR      62  58  86 W5        29.97F                  
JACKSONVILLE   MOCLDY    54  53  97 S5        29.97F                  
JAX NAS        FAIR      62  57  83 W7        29.98F                  
JAX CECIL      FAIR     N/A N/A N/A SW6       29.99S                  
FERNANDINA BEA FAIR      59  56  89 SW7       29.97S                  
ST AUGUSTINE   FAIR      62  58  86 W9        29.99F                  
PALM COAST     FAIR      61  56  85 W8        30.00S                  

STATION/POSITION SKY/WX   TEMP    WIND        PRES    WAVE   SWELL
                          AIR SEA DIR/SP/G            HT/PER HT/PER
                          (F)     (DEG/KT/KT) (MB)    (FT/S) (FT/S)
SHELL POINT      NOT AVBL
KEATON BEACH               66     280/ 10/ 12 1015.8F
CEDAR KEY                  67     290/  6/  8 1016.2F
FERNANDINA                        220/  3/  5   N/A
30.7N   81.3W                 64                N/A     1/10
MAYPORT                           250/  5/  6   N/A
31.4N   80.9W              62 62  250/ 10/ 12 1013.8F   2/ 3   2/ 5
ST AUGUSTINE               62 63  250/  7/  8 1015.4F

$$
FLZ040-043>046-052-053-057-058-063-144-261000-
INTERIOR CENTRAL FLORIDA
  
CITY           SKY/WX    TMP DP  RH WIND       PRES   REMARKS
OCALA          FOG       55  55 100 SW5       30.02F VSB 1/4          
LEESBURG       FOG       62  62 100 W5        30.02S VSB 1/2          
SANFORD        FAIR      64  62  93 NW7       30.00F                  
ORLANDO EXEC   CLOUDY    67  64  90 W12       30.00F                  
ORLANDO INTL   MOCLDY    66  64  93 NW9       30.01S                  
KISSIMMEE      CLOUDY    64  64 100 NW8       30.02S                  
WINTER HAVEN   CLOUDY    65  65 100 NW10      30.03S FOG              
LAKELAND       FOG       64  64 100 NW7       30.02  VSB 1/4          
BARTOW         CLOUDY    66  64  94 NW10      30.01S FOG              
SEBRING        FAIR      60  57  89 CALM      30.01S                  
OKEECHOBEE     FAIR      59  57  94 CALM      30.00S                  

$$
FLZ041-047-054-059-064-141-147-261000-
EAST CENTRAL FLORIDA
  
CITY           SKY/WX    TMP DP  RH WIND       PRES   REMARKS
DAYTONA BEACH  FAIR      61  58  90 W7        30.00S                  
DELAND         FAIR      61  57  88 W3        30.00F                  
JFK SPACE CTR  FAIR     N/A N/A N/A NW7         N/A                   
CAPE CANAVERAL FAIR      66  62  88 W6        29.97F                  
PATRICK AFB    FAIR      66  66  99 W7        29.98F                  
MELBOURNE      FAIR      63  61  93 W6        29.99F                  
VERO BEACH     FAIR      63  62  97 W5        29.99S                  
FT PIERCE      FOG       63  61  93 W5        29.99F VSB 3/4          
STUART         FAIR      66  63  88 W6        30.00S                  

STATION/POSITION SKY/WX   TEMP    WIND        PRES    WAVE   SWELL
                          AIR SEA DIR/SP/G            HT/PER HT/PER
                          (F)     (DEG/KT/KT) (MB)    (FT/S) (FT/S)
28.5N   80.2W              71     260/ 12/ 14 1015.3F   2/10   2/10
28.9N   78.5W              72 74  210/  8/ 12 1014.9R   3/ 4   2/10
TRIDENT PIER                      260/  6/  7   N/A
28.4N   80.5W                 70                N/A     2/10
27.5N   80.2W                 73                N/A     2/ 9

$$
FLZ050-056-061-142-242-148-248-149-249-151-251-155-255-
160-260-261000-
WEST CENTRAL FLORIDA
  
CITY           SKY/WX    TMP DP  RH WIND       PRES   REMARKS
CRYSTAL RIVER  FAIR      54  54 100 CALM      30.02F                  
INVERNESS      FOG       55  55 100 CALM      30.03S VSB 1/4          
BROOKSVILLE    MOCLDY    64  63  96 NW3       30.03S FOG              
CLEARWATER AIR CLOUDY    68  68 100 NW5       30.02S                  
ST PETE CLEARW FAIR      68  66  93 NW6       30.02S                  
TAMPA INTL     MOCLDY    69  66  90 N6        30.02F                  
TAMPA EXEC     CLOUDY    68  66  94 NW3       30.03S                  
PLANT CITY     CLOUDY    68  66  94 CALM      30.04S                  
MACDILL AFB    MOCLDY    68  66  94 NW6       30.01S                  
PETER O KNIGHT CLOUDY   N/A N/A N/A NW3       30.02S                  
ST PETERSBURG  CLOUDY    69  67  93 N6        30.00S                  
SARASOTA       MOCLDY    66  65  96 CALM      30.00S                  
VENICE         MOCLDY    66  66 100 NW5       30.02R                  

STATION/POSITION SKY/WX   TEMP    WIND        PRES    WAVE   SWELL
                          AIR SEA DIR/SP/G            HT/PER HT/PER
                          (F)     (DEG/KT/KT) (MB)    (FT/S) (FT/S)
27.3N   84.2W                 73                N/A     2/ 4
CLEARWATER BEACH           69 72  290/  7/  9 1016.6F
MIDDLE TAMPA BAY                  350/  7/  8   N/A
VENICE                     71 72  320/  9/ 10 1016.3R

$$
FLZ066-069-070-075>078-162-262-165-265-261000-
SOUTHWEST FLORIDA AND KEYS
  
CITY           SKY/WX    TMP DP  RH WIND       PRES   REMARKS
PUNTA GORDA    FAIR      60  59  96 CALM      30.02F                  
FT MYERS       FAIR      65  62  90 CALM      30.00F                  
SOUTHWEST INTL FAIR      64  61  90 CALM      30.01S                  
NAPLES         FAIR      67  65  93 CALM      30.00F                  
MARCO ISLAND   FAIR      65  64  97 CALM      30.02S                  
IMMOKALEE      FAIR      61  59  94 CALM      30.00S                  
MARATHON       FAIR      76  71  85 N5        29.99S                  
KEY WEST NAS   FAIR      75  71  87 N3        30.00S                  
KEY WEST INTL  FAIR      73  71  93 N3        30.00S                  

STATION/POSITION SKY/WX   TEMP    WIND        PRES    WAVE   SWELL
                          AIR SEA DIR/SP/G            HT/PER HT/PER
                          (F)     (DEG/KT/KT) (MB)    (FT/S) (FT/S)
NAPLES                             CALM  /  1   N/A
DRY TORTUGAS               74     330/  2/  3 1016.2F
SAND KEY                   75                 1016.0S
SOMBRERO KEY               75                 1015.1F
MOLASSES REEF              74 78  360/  8/  9 1015.9F

$$
FLZ067-068-071>074-168-172>174-261000-
SOUTHEAST FLORIDA 
  
CITY           SKY/WX    TMP DP  RH WIND       PRES   REMARKS
W PALM BEACH   FAIR      69  66  90 CALM      30.00S                  
FT LAUDER-EXEC FAIR      68  66  93 CALM      29.99S                  
FT LAUDERDALE  FAIR      71  67  87 W5        29.99S                  
POMPANO BEACH  FAIR      70  66  87 W5        30.00S                  
PEMBROKE PINES FAIR      68  66  93 W5        30.01S                  
OPA LOCKA      FAIR      69  64  84 W6        30.01S                  
MIAMI          FAIR      70  64  81 W5        30.00F                  
WEST KENDALL   FAIR      65  64  97 W3        30.00S                  
HOMESTEAD      FAIR      68  63  84 W7        29.99F                  

STATION/POSITION SKY/WX   TEMP    WIND        PRES    WAVE   SWELL
                          AIR SEA DIR/SP/G            HT/PER HT/PER
                          (F)     (DEG/KT/KT) (MB)    (FT/S) (FT/S)
VIRGINIA KEY               72 76  280/  4/  7 1015.1S
LAKE WORTH                 71 78  250/  5/  7 1016.5F
FOWEY ROCKS                73 77  290/ 12/ 13 1016.3F
SETTLEMENT POINT           75     220/ 10/ 11 1015.2F

$$